Weather in Plotycha

Ukraine / Ternopil District     49°29′09″N   25°17′47″E
temp.,
°C
wind,
m/s
gust,
m/s
humid.,
%
clouds,
%
prec.,
mm/h
press.,
hPa
HPBL,
m
13 june, sun
sun1300:00+14sw4891100 0.2 1010135
03:00+13sw3996100 0.6 1007245
06:00+12nnw71396100 6.4 1008806
09:00+11nw81293100 7.0 1011871
12:00+14nw8107199 0.3 10131412
15:00+15nw910708 0.8 10131312
18:00+13nw9138496 0.8 10141158
21:00+11wnw71391100 0.9 1015948
14 june, mon
mon1400:00+11nw51096100 0.3 1015603
03:00+11nnw71396100 1.8 1015757
06:00+10nw71297100 4.0 1016688
09:00+9nw71296100 8.1 1017565
12:00+12nnw71090100 1.1 1018838
15:00+13nnw588299 1.3 1018868
18:00+14n688398 0.6 1018821
21:00+13nnw378991 0.7 1019330
15 june, tue
tue1500:00+11n379081 0.0 1020284
03:00+10nnw359155 0.0 1020132
06:00+9nnw37978 0.0 1020152
09:00+14nnw458324 0.0 1020507
12:00+17n447362 0.0 10191050
15:00+17n457697 0.1 1019892
18:00+18nnw2475100 0.0 1018139
21:00+15nnw3583100 0.1 1018100
16 june, wed
wed1600:00+12nw348691 0.0 101846
03:00+12nw359074 0.0 101975
06:00+12nw3491100 0.0 101880
09:00+17nnw458075 0.0 1019374
12:00+20nnw447185 0.0 10191102
15:00+21nnw457350 1.1 10181156
18:00+20nne46815 1.3 1019649
21:00+17ne34935 1.6 101975
17 june, thu
thu1700:00+14nne22925 0.0 102125
03:00+13nne22930 0.0 102123
06:00+12nne339072 0.0 102256
09:00+17nne237780 0.0 1022310
12:00+20ne3367100 0.0 10221097
15:00+22ne446340 0.1 10221533
18:00+21ne456754 0.0 1022963
21:00+17n227845 0.0 102215